Wahoo, NE

1:46 AM CST on February 23, 2017 (GMT -0600)
Wahoo Municipal

Weather History for KAHQ - February, 2014

Change the Weather History Date:

Thursday, February 13, 2014

  Actual Average Record
Temperature  
Mean Temperature 40 °F -  
Max Temperature 54 °F 38 °F 70 °F (1990)
Min Temperature 26 °F 16 °F -2 °F (1986)
Degree Days  
Heating Degree Days 25    
Moisture  
Dew Point 24 °F    
Average Humidity 61    
Maximum Humidity 81    
Minimum Humidity 29    
Precipitation  
Precipitation 0.00 in - - ()
Sea Level Pressure  
Sea Level Pressure 29.73 in    
Wind  
Wind Speed 10 mph (WNW)    
Max Wind Speed 20 mph    
Max Gust Speed 25 mph    
Visibility 10 miles    
Events      
Averages and records for this station are not official NWS values.
T = Trace of Precipitation, MM = Missing Value Source: NWS Daily Summary

Daily Weather History Graph

Daily Weather History Graph

Search for Another Location

Airport or City:

Trip Planner

Search our weather history database for the weather conditions in past years. The results will help you decide how hot, cold, wet, or windy it might be!

Date:

Astronomy

Feb. 13, 2014 Rise Set
Actual Time 7:23 AM CST 5:58 PM CST
Civil Twilight 6:55 AM CST 6:26 PM CST
Nautical Twilight 6:22 AM CST 6:58 PM CST
Astronomical Twilight 5:50 AM CST 7:30 PM CST
Moon 5:07 PM CST (2/13) 6:17 AM CST (2/13)
Length of Visible Light 11h 31m
Length of Day
10h 34m
Waxing Gibbous, 99% of the Moon is Illuminated
Feb 13
Waxing Gibbous
Feb 14
Full
Feb 22
Last Quarter
Mar 1
New
Mar 8
First Quarter

Hourly Weather History & Observations

Time (CST) Temp. Windchill Dew Point Humidity Pressure Visibility Wind Dir Wind Speed Gust Speed Precip Events Conditions
12:15 AM 27.1 °F 17.5 °F 21.9 °F 81% 29.81 in 10.0 mi SSW 10.4 mph - N/A   Overcast
12:35 AM 27.3 °F 18.4 °F 22.1 °F 81% 29.81 in 10.0 mi SSW 9.2 mph - N/A   Overcast
12:55 AM 27.5 °F 17.4 °F 22.1 °F 80% 29.78 in 10.0 mi SSW 11.5 mph - N/A   Overcast
1:15 AM 27.9 °F 19.1 °F 22.6 °F 81% 29.78 in 10.0 mi South 9.2 mph - N/A   Overcast
1:35 AM 28.0 °F 18.6 °F 23.0 °F 81% 29.76 in 10.0 mi South 10.4 mph - N/A   Overcast
1:55 AM 29.1 °F 18.9 °F 23.5 °F 80% 29.76 in 10.0 mi SSW 12.7 mph - N/A   Mostly Cloudy
2:15 AM 29.7 °F 20.1 °F 23.9 °F 79% 29.75 in 10.0 mi SSW 11.5 mph - N/A   Mostly Cloudy
2:35 AM 30.2 °F 20.8 °F 23.9 °F 77% 29.74 in 10.0 mi South 11.5 mph - N/A   Scattered Clouds
2:55 AM 30.6 °F 19.8 °F 23.9 °F 76% 29.72 in 10.0 mi SSW 15.0 mph - N/A   Scattered Clouds
3:15 AM 30.7 °F 20.0 °F 24.1 °F 76% 29.71 in 10.0 mi SSW 15.0 mph - N/A   Scattered Clouds
3:35 AM 31.6 °F 22.1 °F 24.3 °F 74% 29.71 in 10.0 mi SSW 12.7 mph 17.3 mph N/A   Overcast
3:55 AM 32.0 °F 24.8 °F 23.9 °F 72% 29.72 in 10.0 mi SW 8.1 mph - N/A   Overcast
4:15 AM 32.2 °F 23.8 °F 23.4 °F 70% 29.72 in 10.0 mi SW 10.4 mph - N/A   Scattered Clouds
4:35 AM 32.4 °F 23.5 °F 23.4 °F 69% 29.71 in 10.0 mi SW 11.5 mph - N/A   Clear
4:55 AM 32.2 °F 24.4 °F 23.5 °F 70% 29.71 in 10.0 mi SW 9.2 mph - N/A   Clear
5:15 AM 32.0 °F 24.2 °F 23.5 °F 71% 29.71 in 10.0 mi SW 9.2 mph - N/A   Clear
5:35 AM 32.0 °F 25.6 °F 23.7 °F 71% 29.70 in 10.0 mi SW 6.9 mph - N/A   Clear
5:55 AM 31.1 °F 23.1 °F 23.5 °F 74% 29.70 in 10.0 mi SW 9.2 mph - N/A   Clear
6:15 AM 31.5 °F 24.9 °F 23.7 °F 73% 29.70 in 10.0 mi WSW 6.9 mph - N/A   Clear
6:35 AM 31.3 °F 25.6 °F 23.7 °F 74% 29.70 in 10.0 mi SW 5.8 mph - N/A   Clear
6:55 AM 30.9 °F 26.2 °F 23.7 °F 75% 29.70 in 10.0 mi SW 4.6 mph - N/A   Clear
7:15 AM 31.1 °F 27.7 °F 24.1 °F 75% 29.70 in 10.0 mi South 3.5 mph - N/A   Clear
7:35 AM 30.6 °F - 23.9 °F 76% 29.70 in 10.0 mi Calm Calm - N/A   Clear
7:55 AM 31.3 °F - 24.1 °F 75% 29.71 in 10.0 mi Calm Calm - N/A   Clear
8:15 AM 32.5 °F 28.1 °F 24.4 °F 72% 29.72 in 10.0 mi WSW 4.6 mph - N/A   Clear
8:35 AM 33.6 °F 30.6 °F 25.0 °F 71% 29.72 in 10.0 mi West 3.5 mph - N/A   Clear
8:55 AM 36.0 °F 32.1 °F 26.4 °F 68% 29.73 in 10.0 mi West 4.6 mph - N/A   Clear
9:15 AM 40.1 °F 34.1 °F 28.0 °F 62% 29.74 in 10.0 mi WNW 9.2 mph - N/A   Clear
9:35 AM 43.7 °F 36.0 °F 28.2 °F 54% 29.74 in 10.0 mi WNW 17.3 mph 24.2 mph N/A   Clear
9:55 AM 44.1 °F 35.9 °F 27.7 °F 53% 29.75 in 10.0 mi NW 19.6 mph 25.3 mph N/A   Clear
10:15 AM 44.8 °F 37.7 °F 28.4 °F 53% 29.76 in 10.0 mi NW 16.1 mph 23.0 mph N/A   Clear
10:35 AM 45.5 °F 38.1 °F 28.6 °F 52% 29.76 in 10.0 mi NW 18.4 mph 25.3 mph N/A   Clear
10:55 AM 46.2 °F 39.0 °F 29.3 °F 52% 29.76 in 10.0 mi NW 18.4 mph 24.2 mph N/A   Clear
11:15 AM 47.3 °F - 29.7 °F 50% 29.76 in 10.0 mi NW 18.4 mph 24.2 mph N/A   Clear
11:35 AM 48.7 °F - 30.0 °F 48% 29.75 in 10.0 mi NW 13.8 mph 24.2 mph N/A   Clear
11:55 AM 49.5 °F - 28.0 °F 44% 29.74 in 10.0 mi NW 19.6 mph 25.3 mph N/A   Clear
12:15 PM 50.5 °F - 28.2 °F 42% 29.73 in 10.0 mi NW 15.0 mph - N/A   Clear
12:35 PM 51.1 °F - 27.7 °F 40% 29.73 in 10.0 mi NW 16.1 mph 19.6 mph N/A   Clear
12:55 PM 51.8 °F - 27.9 °F 40% 29.73 in 10.0 mi NW 12.7 mph - N/A   Clear
1:35 PM 52.7 °F - 26.8 °F 37% 29.72 in 10.0 mi WNW 13.8 mph - N/A   Clear
1:55 PM 53.4 °F - 24.4 °F 33% 29.71 in 10.0 mi WNW 15.0 mph 21.9 mph N/A   Clear
2:15 PM 53.8 °F - 26.2 °F 35% 29.71 in 10.0 mi WNW 12.7 mph 18.4 mph N/A   Clear
2:35 PM 54.1 °F - 25.2 °F 33% 29.71 in 10.0 mi WNW 12.7 mph 18.4 mph N/A   Clear
2:55 PM 54.0 °F - 22.1 °F 29% 29.71 in 10.0 mi WNW 18.4 mph - N/A   Clear
3:15 PM 54.0 °F - 22.8 °F 30% 29.72 in 10.0 mi NW 16.1 mph 20.7 mph N/A   Clear
3:35 PM 54.5 °F - 23.7 °F 30% 29.71 in 10.0 mi NW 12.7 mph - N/A   Clear
3:55 PM 53.6 °F - 21.7 °F 29% 29.72 in 10.0 mi NW 16.1 mph 21.9 mph N/A   Clear
4:15 PM 53.1 °F - 21.2 °F 29% 29.72 in 10.0 mi NW 16.1 mph - N/A   Clear
4:35 PM 52.7 °F - 21.7 °F 30% 29.72 in 10.0 mi NNW 9.2 mph - N/A   Clear
4:55 PM 51.3 °F - 23.0 °F 33% 29.72 in 10.0 mi North 9.2 mph - N/A   Clear
5:15 PM 49.5 °F - 23.9 °F 37% 29.72 in 10.0 mi North 8.1 mph - N/A   Clear
5:35 PM 45.7 °F 42.0 °F 25.3 °F 45% 29.72 in 10.0 mi NNE 6.9 mph - N/A   Clear
5:55 PM 43.2 °F 39.0 °F 26.1 °F 51% 29.72 in 10.0 mi NNE 6.9 mph - N/A   Clear
6:15 PM 40.6 °F 36.0 °F 25.3 °F 54% 29.72 in 10.0 mi NNE 6.9 mph - N/A   Clear
6:35 PM 36.5 °F 31.0 °F 23.4 °F 59% 29.73 in 10.0 mi NNE 6.9 mph - N/A   Clear
6:55 PM 34.0 °F 29.8 °F 23.4 °F 65% 29.73 in 10.0 mi North 4.6 mph - N/A   Scattered Clouds
7:15 PM 35.2 °F 30.3 °F 23.4 °F 62% 29.73 in 10.0 mi NNE 5.8 mph - N/A   Scattered Clouds
7:35 PM 33.4 °F 27.3 °F 23.4 °F 67% 29.73 in 10.0 mi NNE 6.9 mph - N/A   Scattered Clouds
7:55 PM 33.4 °F 26.6 °F 22.6 °F 65% 29.73 in 10.0 mi NNE 8.1 mph - N/A   Scattered Clouds
8:15 PM 32.0 °F 24.2 °F 22.3 °F 67% 29.73 in 10.0 mi NE 9.2 mph - N/A   Clear
8:35 PM 29.7 °F 22.8 °F 21.6 °F 72% 29.74 in 10.0 mi NE 6.9 mph - N/A   Scattered Clouds
8:55 PM 30.7 °F 24.1 °F 21.0 °F 67% 29.73 in 10.0 mi ENE 6.9 mph - N/A   Mostly Cloudy
9:15 PM 29.3 °F 22.3 °F 19.9 °F 68% 29.73 in 10.0 mi ENE 6.9 mph - N/A   Scattered Clouds
9:35 PM 28.9 °F 25.2 °F 19.9 °F 69% 29.72 in 10.0 mi NE 3.5 mph - N/A   Clear
9:55 PM 28.2 °F 23.1 °F 19.0 °F 68% 29.70 in 10.0 mi ENE 4.6 mph - N/A   Clear
10:15 PM 27.0 °F 23.0 °F 18.7 °F 71% 29.70 in 10.0 mi ENE 3.5 mph - N/A   Clear
10:35 PM 26.8 °F 18.5 °F 19.0 °F 73% 29.70 in 10.0 mi ENE 8.1 mph - N/A   Clear
10:55 PM 28.0 °F 19.3 °F 19.9 °F 72% 29.69 in 10.0 mi ENE 9.2 mph - N/A   Clear
11:15 PM 28.2 °F 21.0 °F 19.9 °F 71% 29.68 in 10.0 mi ENE 6.9 mph - N/A   Mostly Cloudy
11:35 PM 28.9 °F 21.1 °F 19.4 °F 68% 29.68 in 10.0 mi East 8.1 mph - N/A   Overcast
11:55 PM 28.9 °F 21.1 °F 19.0 °F 67% 29.71 in 10.0 mi NE 8.1 mph - N/A   Overcast